Location: Santa Barbara
(34.4500°N, 119.7700°W)
Time: 11:04:49
(UTC-07:00)

OTV 5 (USA 277) - Visible Passes

Search period start: 22 March 2019 00:00
Search period end: 01 April 2019 00:00
Orbit: 315 x 320 km, 54.5° (Epoch: 14 March)

Date Brightness Start Highest point End Pass type
(mag) Time Alt. Az. Time Alt. Az. Time Alt. Az.
27 Mar ? 06:18:44 10° SE 06:19:08 10° ESE 06:19:33 10° ESE visible
30 Mar ? 05:27:20 12° SSE 05:28:50 18° SE 05:30:49 10° E visible
31 Mar ? 05:42:07 27° SSW 05:43:24 69° SE 05:46:05 10° NE visible
